contact:dominique.lefevre@mio.osupytheas.fr, maurice.libes@osupytheas.fr, didier.mallarino@osupytheas.fr
Project:EMSO http://www.emso-fr.org/EMSO-France
Depth: 2436.0 m
Title:EMSO Ligure Ouest : Data MII capteur CSTAR
DateTime,Latitude,Longitude,Instrument_Serial,Reference_Counts,Signal_Counts,Corrected_Signal_raw_counts,Calculated_Beam_c_inverse_meters,Internal_thermistor_counts
DateTime,Latitude,Longitude,Instrument_Serial,Reference_Counts,Signal_Counts,Corrected_Signal_raw_counts,Calculated_Beam_c_inverse_meters,Internal_thermistor_counts
2023-05-24T00:00:23,42.805,6.029,CST-1368DR,4289,4661,11536,01.211,552
2023-05-24T00:03:25,42.805,6.029,CST-1368DR,4289,4660,11533,01.212,552
2023-05-24T00:06:26,42.805,6.029,CST-1368DR,4289,4661,11535,01.212,552
2023-05-24T00:09:28,42.805,6.029,CST-1368DR,4289,4658,11528,01.214,552
2023-05-24T00:12:29,42.805,6.029,CST-1368DR,4289,4662,11538,01.211,552
2023-05-24T00:15:31,42.805,6.029,CST-1368DR,4289,4656,11524,01.215,552
2023-05-24T00:18:32,42.805,6.029,CST-1368DR,4289,4663,11541,01.210,552
2023-05-24T00:21:34,42.805,6.029,CST-1368DR,4289,4660,11533,01.212,552
2023-05-24T00:24:36,42.805,6.029,CST-1368DR,4289,4661,11537,01.211,552
2023-05-24T00:27:37,42.805,6.029,CST-1368DR,4289,4660,11533,01.212,552
2023-05-24T00:30:39,42.805,6.029,CST-1368DR,4289,4663,11540,01.210,552
2023-05-24T00:33:40,42.805,6.029,CST-1368DR,4289,4660,11534,01.212,552
2023-05-24T00:36:42,42.805,6.029,CST-1368DR,4289,4659,11531,01.213,552
2023-05-24T00:39:43,42.805,6.029,CST-1368DR,4289,4661,11535,01.212,552
2023-05-24T00:42:45,42.805,6.029,CST-1368DR,4289,4660,11533,01.212,552
2023-05-24T00:45:47,42.805,6.029,CST-1368DR,4289,4660,11534,01.212,552
2023-05-24T00:48:48,42.805,6.029,CST-1368DR,4289,4659,11531,01.213,552
2023-05-24T00:51:50,42.805,6.029,CST-1368DR,4289,4658,11529,01.214,552
2023-05-24T00:54:51,42.805,6.029,CST-1368DR,4289,4660,11534,01.212,552
2023-05-24T00:57:53,42.805,6.029,CST-1368DR,4289,4660,11534,01.212,552
2023-05-24T01:00:54,42.805,6.029,CST-1368DR,4289,4659,11530,01.213,552
2023-05-24T01:03:56,42.805,6.029,CST-1368DR,4289,4659,11531,01.213,552
2023-05-24T01:06:58,42.805,6.029,CST-1368DR,4289,4654,11519,01.217,552
2023-05-24T01:09:59,42.805,6.029,CST-1368DR,4289,4661,11535,01.212,552
2023-05-24T01:13:01,42.805,6.029,CST-1368DR,4289,4659,11530,01.213,552
2023-05-24T01:16:02,42.805,6.029,CST-1368DR,4289,4655,11520,01.217,552
2023-05-24T01:19:04,42.805,6.029,CST-1368DR,4289,4657,11526,01.215,552
2023-05-24T01:22:06,42.805,6.029,CST-1368DR,4289,4660,11533,01.212,552
2023-05-24T01:25:07,42.805,6.029,CST-1368DR,4289,4661,11536,01.211,552
2023-05-24T01:28:09,42.805,6.029,CST-1368DR,4289,4659,11531,01.213,551
2023-05-24T01:31:10,42.805,6.029,CST-1368DR,4289,4659,11531,01.213,552
2023-05-24T01:34:12,42.805,6.029,CST-1368DR,4289,4660,11533,01.212,552
2023-05-24T01:37:13,42.805,6.029,CST-1368DR,4289,4658,11528,01.214,552
2023-05-24T01:40:15,42.805,6.029,CST-1368DR,4289,4658,11530,01.213,552
2023-05-24T01:43:17,42.805,6.029,CST-1368DR,4289,4660,11533,01.212,552
2023-05-24T01:46:18,42.805,6.029,CST-1368DR,4289,4656,11523,01.216,552
2023-05-24T01:49:20,42.805,6.029,CST-1368DR,4289,4656,11524,01.215,552
2023-05-24T01:52:21,42.805,6.029,CST-1368DR,4289,4655,11522,01.216,552
2023-05-24T01:55:23,42.805,6.029,CST-1368DR,4289,4655,11521,01.216,552
2023-05-24T01:58:24,42.805,6.029,CST-1368DR,4289,4667,11551,01.206,552
2023-05-24T02:01:26,42.805,6.029,CST-1368DR,4289,4662,11538,01.211,552
2023-05-24T02:04:28,42.805,6.029,CST-1368DR,4289,4662,11539,01.210,552
2023-05-24T02:07:29,42.805,6.029,CST-1368DR,4289,4659,11531,01.213,552
2023-05-24T02:10:31,42.805,6.029,CST-1368DR,4289,4662,11538,01.211,552
2023-05-24T02:13:32,42.805,6.029,CST-1368DR,4289,4657,11526,01.215,552
2023-05-24T02:16:34,42.805,6.029,CST-1368DR,4289,4656,11525,01.215,552
2023-05-24T02:19:36,42.805,6.029,CST-1368DR,4289,4655,11522,01.216,552
2023-05-24T02:22:37,42.805,6.029,CST-1368DR,4289,4657,11527,01.214,552
2023-05-24T02:25:39,42.805,6.029,CST-1368DR,4289,4659,11530,01.213,552
2023-05-24T02:28:40,42.805,6.029,CST-1368DR,4289,4658,11529,01.214,552
2023-05-24T02:31:42,42.805,6.029,CST-1368DR,4289,4655,11522,01.216,552
2023-05-24T02:34:43,42.805,6.029,CST-1368DR,4289,4658,11530,01.213,552
2023-05-24T02:37:45,42.805,6.029,CST-1368DR,4289,4667,11551,01.206,552
2023-05-24T02:40:47,42.805,6.029,CST-1368DR,4289,4658,11529,01.214,552
2023-05-24T02:43:48,42.805,6.029,CST-1368DR,4289,4658,11528,01.214,552
2023-05-24T02:46:50,42.805,6.029,CST-1368DR,4289,4653,11517,01.218,552
2023-05-24T02:49:51,42.805,6.029,CST-1368DR,4289,4655,11521,01.216,552
2023-05-24T02:52:53,42.805,6.029,CST-1368DR,4289,4653,11517,01.218,552
2023-05-24T02:55:54,42.805,6.029,CST-1368DR,4289,4655,11522,01.216,552
2023-05-24T02:58:56,42.805,6.029,CST-1368DR,4289,4653,11517,01.218,552
2023-05-24T03:01:58,42.805,6.029,CST-1368DR,4289,4654,11520,01.217,552
2023-05-24T03:04:59,42.805,6.029,CST-1368DR,4289,4653,11517,01.218,551
2023-05-24T03:08:01,42.805,6.029,CST-1368DR,4289,4652,11515,01.219,552
2023-05-24T03:11:02,42.805,6.029,CST-1368DR,4289,4652,11515,01.219,552
2023-05-24T03:14:04,42.805,6.029,CST-1368DR,4289,4656,11524,01.215,552
2023-05-24T03:17:06,42.805,6.029,CST-1368DR,4289,4653,11517,01.218,552
2023-05-24T03:20:07,42.805,6.029,CST-1368DR,4289,4654,11518,01.218,552
2023-05-24T03:23:09,42.805,6.029,CST-1368DR,4289,4655,11520,01.217,552
2023-05-24T03:26:10,42.805,6.029,CST-1368DR,4289,4654,11518,01.218,552
2023-05-24T03:29:12,42.805,6.029,CST-1368DR,4289,4654,11518,01.218,552
2023-05-24T03:32:13,42.805,6.029,CST-1368DR,4289,4654,11518,01.218,552
2023-05-24T03:35:15,42.805,6.029,CST-1368DR,4289,4654,11518,01.218,552
2023-05-24T03:38:17,42.805,6.029,CST-1368DR,4289,4656,11523,01.216,552
2023-05-24T03:41:18,42.805,6.029,CST-1368DR,4289,4653,11516,01.218,552
2023-05-24T03:44:20,42.805,6.029,CST-1368DR,4289,4654,11520,01.217,552
2023-05-24T03:47:21,42.805,6.029,CST-1368DR,4289,4655,11521,01.216,552
2023-05-24T03:50:23,42.805,6.029,CST-1368DR,4289,4659,11531,01.213,552
2023-05-24T03:53:24,42.805,6.029,CST-1368DR,4289,4653,11517,01.218,552
2023-05-24T03:56:26,42.805,6.029,CST-1368DR,4289,4654,11520,01.217,552
2023-05-24T03:59:28,42.805,6.029,CST-1368DR,4289,4654,11519,01.217,552
2023-05-24T04:02:29,42.805,6.029,CST-1368DR,4289,4655,11521,01.216,552
2023-05-24T04:05:31,42.805,6.029,CST-1368DR,4288,4653,11519,01.217,552
2023-05-24T04:08:32,42.805,6.029,CST-1368DR,4289,4653,11516,01.218,552
2023-05-24T04:11:34,42.805,6.029,CST-1368DR,4288,4654,11522,01.216,551
2023-05-24T04:14:36,42.805,6.029,CST-1368DR,4289,4655,11520,01.217,552
2023-05-24T04:17:37,42.805,6.029,CST-1368DR,4289,4653,11515,01.219,552
2023-05-24T04:20:39,42.805,6.029,CST-1368DR,4289,4651,11512,01.220,552
2023-05-24T04:23:40,42.805,6.029,CST-1368DR,4288,4653,11520,01.217,552
2023-05-24T04:26:42,42.805,6.029,CST-1368DR,4288,4654,11521,01.216,552
2023-05-24T04:29:43,42.805,6.029,CST-1368DR,4288,4653,11519,01.217,552
2023-05-24T04:32:46,42.805,6.029,CST-1368DR,4289,4652,11513,01.219,552
2023-05-24T04:35:47,42.805,6.029,CST-1368DR,4289,4654,11519,01.217,552
2023-05-24T04:38:49,42.805,6.029,CST-1368DR,4289,4654,11519,01.217,552
2023-05-24T04:41:51,42.805,6.029,CST-1368DR,4289,4656,11525,01.215,552
2023-05-24T04:44:52,42.805,6.029,CST-1368DR,4289,4654,11518,01.218,552
2023-05-24T04:47:54,42.805,6.029,CST-1368DR,4289,4654,11519,01.217,552
2023-05-24T04:50:55,42.805,6.029,CST-1368DR,4289,4655,11522,01.216,552
2023-05-24T04:53:57,42.805,6.029,CST-1368DR,4289,4655,11521,01.216,552
2023-05-24T04:56:58,42.805,6.029,CST-1368DR,4289,4655,11522,01.216,552
2023-05-24T05:00:00,42.805,6.029,CST-1368DR,4288,4654,11522,01.216,552
2023-05-24T05:03:02,42.805,6.029,CST-1368DR,4289,4655,11522,01.216,552
2023-05-24T05:06:03,42.805,6.029,CST-1368DR,4289,4657,11526,01.215,552
2023-05-24T05:09:05,42.805,6.029,CST-1368DR,4288,4657,11528,01.214,552
2023-05-24T05:12:06,42.805,6.029,CST-1368DR,4288,4655,11524,01.215,552
2023-05-24T05:15:08,42.805,6.029,CST-1368DR,4288,4655,11525,01.215,552
2023-05-24T05:18:09,42.805,6.029,CST-1368DR,4288,4655,11525,01.215,552
2023-05-24T05:21:11,42.805,6.029,CST-1368DR,4288,4656,11527,01.214,552
2023-05-24T05:24:13,42.805,6.029,CST-1368DR,4289,4655,11522,01.216,552
2023-05-24T05:27:14,42.805,6.029,CST-1368DR,4289,4655,11522,01.216,552
2023-05-24T05:30:16,42.805,6.029,CST-1368DR,4288,4655,11523,01.216,552
2023-05-24T05:33:17,42.805,6.029,CST-1368DR,4289,4656,11523,01.216,552
2023-05-24T05:36:19,42.805,6.029,CST-1368DR,4289,4655,11522,01.216,552
2023-05-24T05:39:21,42.805,6.029,CST-1368DR,4288,4655,11524,01.215,552
2023-05-24T05:42:22,42.805,6.029,CST-1368DR,4288,4653,11519,01.217,552
2023-05-24T05:45:24,42.805,6.029,CST-1368DR,4288,4654,11522,01.216,552
2023-05-24T05:48:25,42.805,6.029,CST-1368DR,4289,4655,11520,01.217,552
2023-05-24T05:51:27,42.805,6.029,CST-1368DR,4289,4655,11522,01.216,552
2023-05-24T05:54:28,42.805,6.029,CST-1368DR,4289,4655,11521,01.216,552
2023-05-24T05:57:30,42.805,6.029,CST-1368DR,4288,4654,11522,01.216,552
2023-05-24T06:00:32,42.805,6.029,CST-1368DR,4289,4655,11521,01.216,552
2023-05-24T06:03:33,42.805,6.029,CST-1368DR,4289,4655,11521,01.216,552
2023-05-24T06:06:35,42.805,6.029,CST-1368DR,4288,4653,11519,01.217,552
2023-05-24T06:09:36,42.805,6.029,CST-1368DR,4288,4654,11522,01.216,552
2023-05-24T06:12:38,42.805,6.029,CST-1368DR,4288,4654,11521,01.216,552
2023-05-24T06:15:39,42.805,6.029,CST-1368DR,4289,4653,11516,01.218,552
2023-05-24T06:18:41,42.805,6.029,CST-1368DR,4288,4653,11520,01.217,552
2023-05-24T06:21:43,42.805,6.029,CST-1368DR,4288,4653,11519,01.217,552
2023-05-24T06:24:44,42.805,6.029,CST-1368DR,4288,4654,11521,01.216,552
2023-05-24T06:27:46,42.805,6.029,CST-1368DR,4288,4653,11520,01.217,552
2023-05-24T06:30:50,42.805,6.029,CST-1368DR,4289,4652,11514,01.219,552
2023-05-24T06:33:51,42.805,6.029,CST-1368DR,4289,4653,11516,01.218,552
2023-05-24T06:36:53,42.805,6.029,CST-1368DR,4288,4653,11518,01.218,552
2023-05-24T06:39:54,42.805,6.029,CST-1368DR,4289,4653,11517,01.218,552
2023-05-24T06:42:56,42.805,6.029,CST-1368DR,4289,4653,11517,01.218,552
2023-05-24T06:45:57,42.805,6.029,CST-1368DR,4288,4654,11522,01.216,552
2023-05-24T06:48:59,42.805,6.029,CST-1368DR,4289,4653,11516,01.218,552
2023-05-24T06:52:01,42.805,6.029,CST-1368DR,4289,4653,11516,01.218,551
2023-05-24T06:55:02,42.805,6.029,CST-1368DR,4288,4653,11518,01.218,552
2023-05-24T06:58:04,42.805,6.029,CST-1368DR,4288,4653,11519,01.217,552
2023-05-24T07:01:05,42.805,6.029,CST-1368DR,4288,4653,11519,01.217,552
2023-05-24T07:04:07,42.805,6.029,CST-1368DR,4288,4653,11519,01.217,552
2023-05-24T07:07:08,42.805,6.029,CST-1368DR,4288,4654,11522,01.216,552
2023-05-24T07:10:10,42.805,6.029,CST-1368DR,4288,4654,11522,01.216,552
2023-05-24T07:13:12,42.805,6.029,CST-1368DR,4288,4653,11520,01.217,552
2023-05-24T07:16:13,42.805,6.029,CST-1368DR,4288,4653,11520,01.217,552
2023-05-24T07:19:15,42.805,6.029,CST-1368DR,4288,4653,11519,01.217,552
2023-05-24T07:22:16,42.805,6.029,CST-1368DR,4288,4654,11521,01.216,552
2023-05-24T07:25:18,42.805,6.029,CST-1368DR,4288,4654,11522,01.216,552
2023-05-24T07:28:20,42.805,6.029,CST-1368DR,4288,4652,11517,01.218,552
2023-05-24T07:31:21,42.805,6.029,CST-1368DR,4288,4653,11519,01.217,552
2023-05-24T07:34:23,42.805,6.029,CST-1368DR,4288,4652,11517,01.218,552
2023-05-24T07:37:24,42.805,6.029,CST-1368DR,4288,4652,11517,01.218,552
2023-05-24T07:40:26,42.805,6.029,CST-1368DR,4288,4653,11519,01.217,552
2023-05-24T07:43:27,42.805,6.029,CST-1368DR,4288,4654,11522,01.216,552
2023-05-24T07:46:29,42.805,6.029,CST-1368DR,4288,4653,11520,01.217,552
2023-05-24T07:49:31,42.805,6.029,CST-1368DR,4289,4654,11519,01.217,552
2023-05-24T07:52:32,42.805,6.029,CST-1368DR,4288,4655,11523,01.216,552
2023-05-24T07:55:34,42.805,6.029,CST-1368DR,4288,4654,11522,01.216,552
2023-05-24T07:58:35,42.805,6.029,CST-1368DR,4288,4654,11521,01.216,552
2023-05-24T08:01:37,42.805,6.029,CST-1368DR,4288,4655,11523,01.216,552
2023-05-24T08:04:38,42.805,6.029,CST-1368DR,4288,4655,11523,01.216,552
2023-05-24T08:07:40,42.805,6.029,CST-1368DR,4288,4653,11519,01.217,552
2023-05-24T08:10:42,42.805,6.029,CST-1368DR,4288,4654,11522,01.216,552
2023-05-24T08:13:43,42.805,6.029,CST-1368DR,4288,4654,11522,01.216,552
2023-05-24T08:16:45,42.805,6.029,CST-1368DR,4288,4655,11523,01.216,552
2023-05-24T08:19:46,42.805,6.029,CST-1368DR,4288,4655,11523,01.216,552
2023-05-24T08:22:48,42.805,6.029,CST-1368DR,4288,4652,11517,01.218,552
2023-05-24T08:25:50,42.805,6.029,CST-1368DR,4288,4653,11518,01.218,552
2023-05-24T08:28:51,42.805,6.029,CST-1368DR,4288,4653,11519,01.217,552
2023-05-24T08:31:53,42.805,6.029,CST-1368DR,4288,4654,11521,01.216,552
2023-05-24T08:34:54,42.805,6.029,CST-1368DR,4288,4653,11518,01.218,552
2023-05-24T08:37:56,42.805,6.029,CST-1368DR,4288,4653,11520,01.217,552
2023-05-24T08:40:57,42.805,6.029,CST-1368DR,4288,4653,11519,01.217,552
2023-05-24T08:43:59,42.805,6.029,CST-1368DR,4288,4654,11522,01.216,552
2023-05-24T08:47:01,42.805,6.029,CST-1368DR,4288,4654,11521,01.216,552
2023-05-24T08:50:02,42.805,6.029,CST-1368DR,4288,4654,11522,01.216,552
2023-05-24T08:53:04,42.805,6.029,CST-1368DR,4288,4653,11518,01.218,552
2023-05-24T08:56:05,42.805,6.029,CST-1368DR,4288,4653,11519,01.217,552
2023-05-24T08:59:07,42.805,6.029,CST-1368DR,4288,4654,11522,01.216,552
2023-05-24T09:02:08,42.805,6.029,CST-1368DR,4288,4658,11532,01.213,552
2023-05-24T09:05:10,42.805,6.029,CST-1368DR,4288,4655,11524,01.215,552
2023-05-24T09:08:12,42.805,6.029,CST-1368DR,4288,4656,11527,01.214,552
2023-05-24T09:11:13,42.805,6.029,CST-1368DR,4288,4656,11525,01.215,552
2023-05-24T09:14:15,42.805,6.029,CST-1368DR,4288,4656,11527,01.214,552
2023-05-24T09:17:16,42.805,6.029,CST-1368DR,4288,4654,11522,01.216,552
2023-05-24T09:20:18,42.805,6.029,CST-1368DR,4288,4653,11519,01.217,552
2023-05-24T09:23:19,42.805,6.029,CST-1368DR,4288,4655,11524,01.215,552
2023-05-24T09:26:21,42.805,6.029,CST-1368DR,4288,4655,11523,01.216,552
2023-05-24T09:29:23,42.805,6.029,CST-1368DR,4288,4655,11523,01.216,552
2023-05-24T09:32:24,42.805,6.029,CST-1368DR,4288,4654,11522,01.216,552
2023-05-24T09:35:26,42.805,6.029,CST-1368DR,4288,4654,11522,01.216,552
2023-05-24T09:38:27,42.805,6.029,CST-1368DR,4288,4655,11523,01.216,552
2023-05-24T09:41:29,42.805,6.029,CST-1368DR,4288,4655,11523,01.216,552
2023-05-24T09:44:31,42.805,6.029,CST-1368DR,4288,4653,11520,01.217,552
2023-05-24T09:47:32,42.805,6.029,CST-1368DR,4288,4653,11519,01.217,552
2023-05-24T09:50:34,42.805,6.029,CST-1368DR,4288,4655,11523,01.216,552
2023-05-24T09:53:35,42.805,6.029,CST-1368DR,4288,4655,11523,01.216,552
2023-05-24T09:56:37,42.805,6.029,CST-1368DR,4288,4654,11522,01.216,552
2023-05-24T09:59:38,42.805,6.029,CST-1368DR,4288,4653,11519,01.217,552
2023-05-24T10:02:40,42.805,6.029,CST-1368DR,4288,4655,11523,01.216,552
2023-05-24T10:05:42,42.805,6.029,CST-1368DR,4288,4654,11522,01.216,552
2023-05-24T10:08:43,42.805,6.029,CST-1368DR,4288,4655,11523,01.216,552
2023-05-24T10:11:45,42.805,6.029,CST-1368DR,4288,4653,11519,01.217,552
2023-05-24T10:14:46,42.805,6.029,CST-1368DR,4288,4652,11516,01.218,552
2023-05-24T10:17:48,42.805,6.029,CST-1368DR,4288,4652,11517,01.218,552
2023-05-24T10:20:49,42.805,6.029,CST-1368DR,4288,4653,11519,01.217,552
2023-05-24T10:23:51,42.805,6.029,CST-1368DR,4288,4652,11517,01.218,552
2023-05-24T10:26:53,42.805,6.029,CST-1368DR,4288,4653,11519,01.217,552
2023-05-24T10:29:54,42.805,6.029,CST-1368DR,4288,4652,11517,01.218,552
2023-05-24T10:32:56,42.805,6.029,CST-1368DR,4288,4652,11515,01.219,552
2023-05-24T10:35:57,42.805,6.029,CST-1368DR,4288,4653,11520,01.217,552
2023-05-24T10:38:59,42.805,6.029,CST-1368DR,4288,4654,11521,01.216,552
2023-05-24T10:42:01,42.805,6.029,CST-1368DR,4288,4653,11518,01.218,552
2023-05-24T10:45:02,42.805,6.029,CST-1368DR,4288,4652,11516,01.218,552
2023-05-24T10:48:04,42.805,6.029,CST-1368DR,4288,4653,11518,01.218,552
2023-05-24T10:51:05,42.805,6.029,CST-1368DR,4288,4653,11519,01.217,552
2023-05-24T10:54:07,42.805,6.029,CST-1368DR,4288,4652,11517,01.218,552
2023-05-24T10:57:08,42.805,6.029,CST-1368DR,4288,4653,11518,01.218,552
2023-05-24T11:00:10,42.805,6.029,CST-1368DR,4288,4652,11517,01.218,552
2023-05-24T11:03:12,42.805,6.029,CST-1368DR,4288,4653,11519,01.217,552
2023-05-24T11:06:13,42.805,6.029,CST-1368DR,4288,4654,11522,01.216,552
2023-05-24T11:09:15,42.805,6.029,CST-1368DR,4288,4653,11519,01.217,552
2023-05-24T11:12:16,42.805,6.029,CST-1368DR,4288,4652,11517,01.218,552
2023-05-24T11:15:18,42.805,6.029,CST-1368DR,4288,4653,11519,01.217,552
2023-05-24T11:18:19,42.805,6.029,CST-1368DR,4288,4652,11517,01.218,552
2023-05-24T11:21:21,42.805,6.029,CST-1368DR,4288,4653,11518,01.218,552
2023-05-24T11:24:23,42.805,6.029,CST-1368DR,4288,4651,11515,01.219,552
2023-05-24T11:27:24,42.805,6.029,CST-1368DR,4288,4651,11515,01.219,552
2023-05-24T11:30:26,42.805,6.029,CST-1368DR,4288,4652,11516,01.218,552
2023-05-24T11:33:27,42.805,6.029,CST-1368DR,4288,4655,11523,01.216,552
2023-05-24T11:36:29,42.805,6.029,CST-1368DR,4288,4653,11518,01.218,552
2023-05-24T11:39:30,42.805,6.029,CST-1368DR,4288,4653,11518,01.218,552
2023-05-24T11:42:32,42.805,6.029,CST-1368DR,4288,4652,11517,01.218,552
2023-05-24T11:45:34,42.805,6.029,CST-1368DR,4288,4651,11514,01.219,552
2023-05-24T11:48:35,42.805,6.029,CST-1368DR,4288,4652,11516,01.218,552
2023-05-24T11:51:37,42.805,6.029,CST-1368DR,4288,4651,11514,01.219,552
2023-05-24T11:54:38,42.805,6.029,CST-1368DR,4288,4651,11513,01.219,552
2023-05-24T11:57:40,42.805,6.029,CST-1368DR,4288,4651,11514,01.219,552
2023-05-24T12:00:42,42.805,6.029,CST-1368DR,4288,4653,11519,01.217,552
2023-05-24T12:03:43,42.805,6.029,CST-1368DR,4288,4652,11517,01.218,552
2023-05-24T12:06:45,42.805,6.029,CST-1368DR,4288,4651,11514,01.219,552
2023-05-24T12:09:46,42.805,6.029,CST-1368DR,4288,4652,11515,01.219,552
2023-05-24T12:12:48,42.805,6.029,CST-1368DR,4288,4653,11518,01.218,552
2023-05-24T12:15:49,42.805,6.029,CST-1368DR,4288,4652,11517,01.218,552
2023-05-24T12:18:51,42.805,6.029,CST-1368DR,4288,4652,11517,01.218,552
2023-05-24T12:21:53,42.805,6.029,CST-1368DR,4288,4653,11518,01.218,552
2023-05-24T12:24:54,42.805,6.029,CST-1368DR,4288,4652,11515,01.219,552
2023-05-24T12:27:56,42.805,6.029,CST-1368DR,4288,4653,11519,01.217,552
2023-05-24T12:30:58,42.805,6.029,CST-1368DR,4288,4653,11519,01.217,552
2023-05-24T12:33:59,42.805,6.029,CST-1368DR,4288,4651,11514,01.219,552
2023-05-24T12:37:01,42.805,6.029,CST-1368DR,4288,4652,11517,01.218,552
2023-05-24T12:40:02,42.805,6.029,CST-1368DR,4288,4652,11516,01.218,552
2023-05-24T12:43:04,42.805,6.029,CST-1368DR,4288,4652,11517,01.218,552
2023-05-24T12:46:06,42.805,6.029,CST-1368DR,4288,4652,11517,01.218,552
2023-05-24T12:49:07,42.805,6.029,CST-1368DR,4288,4652,11515,01.219,552
2023-05-24T12:52:09,42.805,6.029,CST-1368DR,4288,4651,11514,01.219,552
2023-05-24T12:55:10,42.805,6.029,CST-1368DR,4288,4652,11515,01.219,552
2023-05-24T12:58:12,42.805,6.029,CST-1368DR,4288,4652,11517,01.218,552
2023-05-24T13:01:13,42.805,6.029,CST-1368DR,4288,4650,11511,01.220,552
2023-05-24T13:04:15,42.805,6.029,CST-1368DR,4288,4652,11515,01.219,552
2023-05-24T13:07:17,42.805,6.029,CST-1368DR,4288,4651,11513,01.219,552
2023-05-24T13:10:18,42.805,6.029,CST-1368DR,4288,4651,11513,01.219,552
2023-05-24T13:13:20,42.805,6.029,CST-1368DR,4288,4651,11513,01.219,552
2023-05-24T13:16:21,42.805,6.029,CST-1368DR,4288,4651,11514,01.219,552
2023-05-24T13:19:23,42.805,6.029,CST-1368DR,4288,4652,11515,01.219,552
2023-05-24T13:22:25,42.805,6.029,CST-1368DR,4288,4652,11516,01.218,552
2023-05-24T13:25:26,42.805,6.029,CST-1368DR,4288,4650,11510,01.220,552
2023-05-24T13:28:28,42.805,6.029,CST-1368DR,4288,4651,11514,01.219,552
2023-05-24T13:31:29,42.805,6.029,CST-1368DR,4288,4651,11514,01.219,552
2023-05-24T13:34:31,42.805,6.029,CST-1368DR,4288,4651,11513,01.219,552
2023-05-24T13:37:32,42.805,6.029,CST-1368DR,4288,4649,11510,01.220,552
2023-05-24T13:40:34,42.805,6.029,CST-1368DR,4288,4656,11526,01.215,552
2023-05-24T13:43:36,42.805,6.029,CST-1368DR,4288,4650,11511,01.220,552
2023-05-24T13:46:37,42.805,6.029,CST-1368DR,4288,4649,11509,01.221,552
2023-05-24T13:49:39,42.805,6.029,CST-1368DR,4288,4648,11507,01.221,552
2023-05-24T13:52:40,42.805,6.029,CST-1368DR,4288,4649,11508,01.221,552
2023-05-24T13:55:42,42.805,6.029,CST-1368DR,4288,4649,11509,01.221,552
2023-05-24T13:58:43,42.805,6.029,CST-1368DR,4288,4649,11509,01.221,552
2023-05-24T14:01:45,42.805,6.029,CST-1368DR,4288,4650,11510,01.220,552
2023-05-24T14:04:47,42.805,6.029,CST-1368DR,4288,4648,11507,01.221,552
2023-05-24T14:07:48,42.805,6.029,CST-1368DR,4288,4649,11508,01.221,552
2023-05-24T14:10:50,42.805,6.029,CST-1368DR,4288,4650,11512,01.220,552
2023-05-24T14:13:51,42.805,6.029,CST-1368DR,4288,4647,11505,01.222,552
2023-05-24T14:16:53,42.805,6.029,CST-1368DR,4288,4649,11508,01.221,552
2023-05-24T14:19:55,42.805,6.029,CST-1368DR,4288,4648,11506,01.222,552
2023-05-24T14:22:56,42.805,6.029,CST-1368DR,4288,4650,11510,01.220,552
2023-05-24T14:25:58,42.805,6.029,CST-1368DR,4288,4650,11510,01.220,552
2023-05-24T14:28:59,42.805,6.029,CST-1368DR,4288,4651,11514,01.219,552
2023-05-24T14:32:02,42.805,6.029,CST-1368DR,4288,4650,11511,01.220,552
2023-05-24T14:35:03,42.805,6.029,CST-1368DR,4288,4650,11512,01.220,552
2023-05-24T14:38:05,42.805,6.029,CST-1368DR,4288,4652,11517,01.218,552
2023-05-24T14:41:06,42.805,6.029,CST-1368DR,4288,4651,11514,01.219,552
2023-05-24T14:44:08,42.805,6.029,CST-1368DR,4288,4648,11507,01.221,552
2023-05-24T14:47:09,42.805,6.029,CST-1368DR,4288,4650,11512,01.220,552
2023-05-24T14:50:11,42.805,6.029,CST-1368DR,4288,4651,11513,01.219,552
2023-05-24T14:53:13,42.805,6.029,CST-1368DR,4288,4650,11511,01.220,552
2023-05-24T14:56:14,42.805,6.029,CST-1368DR,4288,4648,11506,01.222,552
2023-05-24T14:59:16,42.805,6.029,CST-1368DR,4288,4651,11514,01.219,552
2023-05-24T15:02:17,42.805,6.029,CST-1368DR,4288,4651,11513,01.219,552
2023-05-24T15:05:19,42.805,6.029,CST-1368DR,4288,4648,11506,01.222,552
2023-05-24T15:08:21,42.805,6.029,CST-1368DR,4288,4646,11502,01.223,552
2023-05-24T15:11:22,42.805,6.029,CST-1368DR,4288,4644,11496,01.225,552
2023-05-24T15:14:24,42.805,6.029,CST-1368DR,4288,4649,11508,01.221,552
2023-05-24T15:17:25,42.805,6.029,CST-1368DR,4288,4646,11502,01.223,552
2023-05-24T15:20:27,42.805,6.029,CST-1368DR,4288,4645,11499,01.224,552
2023-05-24T15:23:28,42.805,6.029,CST-1368DR,4288,4646,11502,01.223,552
2023-05-24T15:26:30,42.805,6.029,CST-1368DR,4288,4643,11493,01.226,551
2023-05-24T15:29:32,42.805,6.029,CST-1368DR,4288,4647,11505,01.222,552
2023-05-24T15:32:33,42.805,6.029,CST-1368DR,4288,4646,11501,01.223,552
2023-05-24T15:35:35,42.805,6.029,CST-1368DR,4288,4644,11496,01.225,552
2023-05-24T15:38:36,42.805,6.029,CST-1368DR,4288,4642,11492,01.227,552
2023-05-24T15:41:38,42.805,6.029,CST-1368DR,4288,4643,11494,01.226,552
2023-05-24T15:44:39,42.805,6.029,CST-1368DR,4288,4644,11497,01.225,552
2023-05-24T15:47:41,42.805,6.029,CST-1368DR,4288,4641,11490,01.227,552
2023-05-24T15:50:43,42.805,6.029,CST-1368DR,4288,4642,11491,01.227,552
2023-05-24T15:53:44,42.805,6.029,CST-1368DR,4288,4644,11496,01.225,552
2023-05-24T15:56:46,42.805,6.029,CST-1368DR,4288,4641,11488,01.228,552
2023-05-24T15:59:47,42.805,6.029,CST-1368DR,4288,4642,11491,01.227,552
2023-05-24T16:02:49,42.805,6.029,CST-1368DR,4288,4638,11481,01.230,552
2023-05-24T16:05:50,42.805,6.029,CST-1368DR,4288,4641,11488,01.228,552
2023-05-24T16:08:52,42.805,6.029,CST-1368DR,4288,4645,11498,01.224,552
2023-05-24T16:11:54,42.805,6.029,CST-1368DR,4288,4642,11491,01.227,552
2023-05-24T16:14:55,42.805,6.029,CST-1368DR,4288,4642,11491,01.227,552
2023-05-24T16:17:57,42.805,6.029,CST-1368DR,4288,4685,11598,01.190,552
2023-05-24T16:20:58,42.805,6.029,CST-1368DR,4288,4683,11594,01.191,552
2023-05-24T16:24:00,42.805,6.029,CST-1368DR,4288,4681,11589,01.193,552
2023-05-24T16:27:02,42.805,6.029,CST-1368DR,4289,4685,11595,01.191,552
2023-05-24T16:30:03,42.805,6.029,CST-1368DR,4289,4679,11580,01.196,552
2023-05-24T16:33:05,42.805,6.029,CST-1368DR,4289,4673,11566,01.201,552
2023-05-24T16:36:06,42.805,6.029,CST-1368DR,4288,4675,11573,01.198,552